Location: Sungai Bunut
(2.6333°N, 113.7333°E)
Time: 10:20:43
(UTC+00:00)

Courier 1B - Pass Details

Date: 10 December 2023
Orbit: 962 x 1209 km, 28.3° (Epoch: 03 March)

Event Time Altitude Azimuth Distance (km) Brightness Sun altitude
Exits shadow 20:39:17 43° 289° (WNW) 1,593 8.1 -23.7°
Maximum altitude 20:41:11 52° 331° (NNW) 1,421 8.0 -23.2°
Drops below altitude 10° 20:48:25 10° 46° (NE) 3,001 10.3 -21.6°
Sets 20:51:13 0° 51° (NE) 3,923 11.0 -21.0°
